Regional Weather Roundup
Issued by NWS Mt. Holly, NJ

Home | Current Version | Previous Version | Text Only | Print | Product List | Glossary On
Versions: 1 2 3 4 5 6 7 8 9 10 11 12 13 14 15 16 17 18 19 20 21 22 23 24 25 26 27 28 29 30 31 32 33 34 35 36 37 38 39 40 41 42 43 44 45 46 47 48 49 50
417
ASUS41 KPHI 232213
RWRPHI

REGIONAL WEATHER ROUNDUP
NATIONAL WEATHER SERVICE MOUNT HOLLY NJ
600 PM EDT SAT SEP 23 2017

NOTE:  "FAIR" INDICATES FEW OR NO CLOUDS BELOW 12,000 FEET WITH NO
SIGNIFICANT WEATHER AND/OR OBSTRUCTIONS TO VISIBILITY.

 * = STATION DOES NOT REPORT PRECIPITATION (E.G. RAIN, SNOW, ETC.)
        OR FOG.

NJZ015>026-232300-
SOUTHERN NEW JERSEY

CITY           SKY/WX    TMP DP  RH WIND       PRES   REMARKS
POMONA         CLEAR     81  68  64 SE7       30.02R
WILDWOOD*      CLEAR     80  68  66 CALM      30.03R
MILLVILLE      CLEAR     87  65  47 N3        30.01R
WRIGHTSTOWN    CLEAR     84  61  45 N7        29.98R
MOUNT HOLLY    CLEAR     84  58  40 N8        30.00S
TRENTON        CLEAR     86  55  34 N6        30.01S

$$
NJZ001>014-232300-
NORTHERN NEW JERSEY

CITY           SKY/WX    TMP DP  RH WIND       PRES   REMARKS
SUSSEX         CLEAR     81  64  56 CALM      30.03S
ANDOVER*         N/A     80  62  54 CALM      30.04R
MORRISTOWN     CLEAR     84  57  39 SW5       30.02R
NEWARK         CLEAR     87  48  25 NE8       30.00R
TETERBORO      CLEAR     87  48  25 NE7       29.99S
CALDWELL       CLEAR     86  57  37 CALM      30.01S
ALLAIRE*       CLEAR     85  57  38 N5        30.02R
TOMS RIVER*    CLEAR     84  63  49 N3        30.01S

$$
PAZ043-044-047-054-055-060>062-066>071-232300-
EASTERN PENNSYLVANIA

CITY           SKY/WX    TMP DP  RH WIND       PRES   REMARKS
PHILADELPHIA   PTCLDY    87  50  27 N9        30.01R
NORTH PHILA    CLEAR     87  55  33 NE10      30.03R
BLUE BELL*     CLEAR     82  55  39 CALM      30.03S
DOYLESTOWN     CLEAR     85  57  38 N5        30.03R
QUAKERTOWN*    CLEAR     84  59  42 NE3       30.05R
PERKASIE*      FAIR      79  68  69 CALM      30.05S
POTTSTOWN      SUNNY     83  59  44 NW5       30.05R
LANCASTER      SUNNY     84  58  40 NW7       30.05R
COATESVILLE    SUNNY     82  57  42 N5        30.07R
READING        SUNNY     85  61  44 NW3       30.03R
ALLENTOWN      CLEAR     87  59  38 NE3       30.03R
MOUNT POCONO   CLEAR     78  57  48 NW7       30.12R
HAZLETON       SUNNY     81  57  44 NW6       30.14S
LEHIGHTON      FAIR      82  57  42 CALM      30.05S
WILKES BARRE   SUNNY     85  58  39 N7        30.08S

$$
DEZALL-MDZ008-012-015-019-020-232300-
DELAWARE AND EASTERN MARYLAND

CITY           SKY/WX    TMP DP  RH WIND       PRES   REMARKS
WILMINGTON     SUNNY     85  59  41 NW8       30.03R
DOVER          SUNNY     83  71  67 NW5       30.03R
GEORGETOWN     SUNNY     85  63  47 N3        30.03S
EASTON         SUNNY     84  63  48 NW7       30.07S
ABERDEEN       SUNNY     82  61  48 CALM      30.04R
PATUXENT       MOSUNNY   83  63  50 N7        30.04S
OCEAN CITY     SUNNY     77  68  73 E5        30.03S
WALLOPS ISLAND MOSUNNY   77  68  73 MISG      30.05R
CAMBRIDGE      SUNNY     82  64  54 VRB5G12   30.03S
SALISBURY      SUNNY     83  67  58 NE5       30.03R

$$
PAZ001-021-NYZ056-072-MDZ011-DCZ001-232300-
OTHER NEARBY LOCATIONS

CITY           SKY/WX    TMP DP  RH WIND       PRES   REMARKS
HARRISBURG     MOSUNNY   84  56  38 N7        30.05R
STATE COLLEGE  SUNNY     84  59  42 CALM      30.11R
WILLIAMSPORT   SUNNY     87  63  44 S3        30.04S
BINGHAMTON     SUNNY     79  59  50 N9        30.12S
NEW YORK CITY  CLEAR     84  48  28 NE7       30.03S
BALTIMORE      MOSUNNY   86  54  33 NW3       30.03S
WASHINGTON DC  MOSUNNY   87  57  35 N7        30.05S

$$




USA.gov is the U.S. government's official web portal to all federal, state and local government web resources and services.